Retour au catalogue

STARLINK-38233

ActifCommunicationsSSO
NORAD 100249·PAYLOAD·🇺🇸 United States

Lancé Aug 8, 2026 depuis Vandenberg Space Force Base

Loading…

Prochains Passages (prochaines 24 heures)

TLE

FraisSource: Space-Track

Époque: Sep 14, 2026, 15:45 UTC

1 A0249U 26181D   26257.65661935  .00188571  00000-0  12372-2 0  9993
2 A0249  97.2825 300.8549 0001762  91.8527 268.2940 15.75193014  6987

Suivez STARLINK-38233 en temps réel avec AllMySat

Download on the App Store